Dewpoint
57 57 57 58 58 58 58 58 58 59 59 59 59 59 60 60 59 55 36 43 48 72 71 41 53 53 48 45 42 40 41 41 40 43 42 41 43 47 43 45 48 54 57 59 61
56 56 56 57 57 58 58 58 58 58 58 58 59 59 60 60 52 39 56 66 71 72 36 29 25 21 23 28 34 39 35 35 38 39 41 43 43 44 40 42 47 58 60 60 61
56 56 56 56 56 57 57 57 58 58 58 58 58 59 60 59 49 32 68 71 70 65 36 30 24 17 21 22 34 39 35 36 35 36 42 45 44 42 43 42 45 56 59 61 61
55 55 55 56 56 56 57 57 57 57 57 58 58 59 60 55 37 33 69 69 69 52 34 22 17 21 23 23 28 38 37 34 34 32 46 46 48 46 45 45 46 57 59 61 62
55 55 55 55 55 56 56 57 57 57 57 57 59 60 51 42 36 45 71 68 50 29 20 23 23 26 23 23 26 30 38 37 35 26 33 47 46 45 49 47 49 57 59 60 60
54 54 54 55 55 56 56 56 56 56 57 57 59 60 51 29 35 35 44 35 24 23 26 28 24 23 22 24 26 28 31 30 32 32 29 30 36 40 49 48 50 53 57 58 60
54 54 55 54 54 55 56 56 56 56 56 57 60 53 38 27 22 30 33 21 23 23 23 22 22 23 23 22 25 24 27 34 34 35 32 29 33 38 47 45 42 50 55 57 60
54 54 54 54 55 55 55 55 55 55 56 58 61 50 36 26 25 16 28 27 20 18 20 20 24 24 24 23 21 24 31 30 36 32 32 32 30 43 43 41 44 46 54 57 64
54 54 54 54 55 55 54 54 54 56 57 59 52 44 36 38 16 14 12 23 21 18 19 18 23 21 20 18 21 32 32 32 32 35 33 33 28 41 42 40 42 48 55 62 65
54 54 54 54 54 54 54 53 53 55 55 46 44 37 32 21 17 12 4 13 21 22 21 20 20 16 13 14 18 28 32 32 32 32 31 32 27 37 39 42 45 51 54 63 65
53 54 54 54 54 54 50 35 37 42 36 28 31 21 19 18 17 21 17 18 21 20 18 23 17 13 12 13 17 20 31 34 33 32 32 30 25 34 34 38 43 50 49 64 65
53 53 54 54 53 52 50 37 30 24 22 22 21 20 22 15 14 14 13 12 20 18 18 18 15 15 14 13 15 16 32 32 33 29 31 31 18 33 33 31 36 50 65 67 67
53 53 53 53 52 50 33 29 27 23 23 18 15 10 13 10 11 11 11 14 18 18 15 14 15 16 13 11 11 12 27 32 32 29 28 27 22 22 35 50 48 52 66 68 67
52 53 52 52 43 32 31 31 24 24 24 17 9 8 5 7 5 9 7 17 16 14 16 13 12 10 11 13 8 10 15 16 14 18 18 22 18 31 48 48 48 49 65 67 68
52 52 52 51 43 32 29 20 22 27 20 12 8 7 6 5 8 7 7 9 15 16 15 15 14 9 12 9 11 9 14 16 20 17 30 16 17 38 47 48 48 49 65 67 68
52 52 51 47 47 40 32 25 26 24 21 11 9 5 5 4 4 7 7 8 19 15 15 16 13 12 11 9 8 11 14 18 19 16 16 21 23 28 42 48 47 49 65 66 66
51 51 49 45 34 26 24 26 24 21 16 9 8 6 6 6 4 7 7 10 15 16 19 19 16 14 14 12 13 9 24 18 21 19 20 28 29 31 39 46 45 51 60 63 65
50 50 49 44 33 29 31 28 24 17 13 11 8 5 5 7 7 5 12 14 18 16 16 20 18 18 12 13 13 15 14 18 17 23 27 27 25 39 41 50 57 59 61 63 65
49 47 44 39 42 37 32 25 24 23 15 9 12 12 11 5 5 7 8 14 17 16 15 17 17 20 13 10 11 12 22 18 14 14 20 29 34 36 50 56 58 60 61 62 65
46 42 34 37 36 29 30 28 23 17 12 13 16 17 17 12 11 10 14 11 11 14 18 17 18 19 18 10 12 11 21 20 21 20 21 30 34 35 48 49 54 58 58 62 62
45 36 34 30 30 33 24 23 19 17 18 17 16 17 16 17 17 13 15 13 10 9 12 17 21 15 23 20 15 16 16 26 27 26 18 27 33 44 50 50 50 50 56 61 61
44 36 35 28 29 29 23 24 27 18 17 17 19 18 18 18 21 21 20 18 11 10 11 15 26 21 20 20 19 17 21 21 26 21 31 29 33 43 49 48 56 54 55 61 62
43 39 34 28 20 16 20 16 18 19 20 19 21 19 18 19 25 27 26 21 16 21 25 36 26 16 16 18 30 28 21 23 29 31 25 29 36 48 51 52 55 53 57 60 60
45 41 36 35 26 24 23 25 19 18 22 22 23 21 20 20 22 27 23 21 21 21 51 35 29 29 15 23 30 29 25 26 30 32 27 33 42 47 47 48 53 58 61 58 60
45 42 43 29 24 20 23 23 22 21 23 26 27 21 19 24 26 25 24 22 25 41 26 25 26 34 26 24 22 21 22 29 25 35 29 37 41 47 48 50 52 55 57 58 59
43 39 36 34 38 36 29 27 21 22 29 23 23 19 21 24 25 25 25 30 33 41 42 32 27 41 25 25 23 22 22 30 32 28 27 34 42 49 50 50 48 50 57 59 58
45 42 42 37 32 31 29 30 22 25 26 24 27 27 25 28 34 34 30 29 31 35 39 44 34 34 29 31 28 26 26 29 37 38 36 32 40 47 45 44 45 56 56 57 57
Lifted_Index
13 13 13 12 12 13 13 13 13 13 14 13 13 13 13 12 10 8 7 6 6 4 3 3 2 2 2 2 1 1 -0 -1 -1 -1 -0 -0 -0 -0 0 -0 -1 -2 -3 -3 -3
13 13 13 13 12 12 13 13 13 13 13 13 13 13 12 12 10 8 7 7 6 5 4 3 3 3 3 3 2 1 0 -0 -0 -1 -1 -1 -0 -0 0 -0 -1 -3 -4 -4 -4
13 13 13 13 12 12 12 12 12 13 13 13 13 12 12 11 9 7 7 7 7 7 6 4 4 4 3 3 2 0 0 0 -0 -1 -1 -1 -1 -0 -0 -0 -2 -3 -4 -4 -4
13 13 13 12 12 12 12 12 12 12 12 12 12 12 11 9 7 6 7 7 7 7 6 5 4 4 3 2 1 -0 -0 -0 -0 -1 -1 -1 -1 -1 -0 -0 -2 -4 -5 -5 -5
13 13 13 12 11 11 11 11 11 11 11 11 11 11 9 8 7 6 7 8 8 7 6 5 5 4 3 2 1 -0 -1 -0 -1 -1 -0 -1 -1 -1 -1 -0 -2 -3 -4 -4 -4
13 13 12 12 11 11 11 10 10 10 10 10 10 9 8 7 6 7 7 8 8 7 6 6 5 5 4 3 2 0 -0 -1 -1 -1 -0 -1 -1 -1 -1 -0 -1 -2 -4 -4 -4
13 13 12 12 11 11 10 10 9 9 9 9 9 8 7 6 6 7 7 8 8 7 6 6 6 5 5 4 2 1 -0 -0 -1 -1 -1 -0 -0 -0 -0 0 -0 -2 -3 -4 -4
12 12 12 12 11 10 10 9 9 8 9 9 8 7 6 6 7 7 7 7 7 7 7 6 6 6 5 4 3 1 0 -0 -0 -0 -0 -0 -0 -0 0 0 -1 -2 -3 -4 -4
12 12 12 11 11 10 9 8 8 7 8 8 7 6 5 6 6 7 7 7 7 7 6 6 6 6 5 4 3 1 1 0 0 0 1 0 -0 -0 0 0 -1 -2 -3 -3 -4
13 12 12 11 11 9 8 7 6 6 6 6 6 5 5 5 6 6 6 6 6 6 6 6 5 5 4 3 2 1 0 0 0 1 1 0 -0 0 0 0 -1 -2 -3 -3 -3
13 13 12 11 10 9 8 6 5 5 4 5 5 4 4 5 5 5 6 6 6 5 5 5 5 4 3 3 1 0 -0 -0 0 0 0 0 -0 -0 0 0 -1 -2 -3 -4 -4
14 13 12 11 10 9 8 6 6 5 4 4 4 4 4 4 4 5 5 5 5 5 4 4 4 3 2 2 1 -0 -0 -0 -0 -0 0 -0 -0 -0 -0 -0 -1 -3 -5 -5 -5
14 14 13 12 10 9 7 6 6 6 4 3 3 3 3 4 4 4 4 4 4 4 4 3 3 2 1 0 0 -0 -1 -1 -0 -0 -0 -0 -0 -0 -0 -0 -1 -3 -5 -6 -6
14 14 13 12 10 8 7 7 7 6 3 2 2 2 3 3 3 3 3 4 4 4 3 3 2 1 -0 -0 0 0 -0 -0 -0 -1 -1 -0 -0 -0 -0 -0 -1 -3 -5 -7 -7
14 14 14 12 10 8 7 7 7 5 3 1 1 2 2 2 2 2 3 3 3 3 3 2 1 1 0 0 1 1 0 -0 -0 -0 -0 -0 -0 -0 0 0 -0 -2 -6 -7 -7
14 14 14 12 10 9 8 7 6 4 2 1 1 1 2 2 2 2 2 3 3 3 3 2 2 1 1 1 1 1 1 0 0 0 0 -0 -0 -0 0 0 -1 -4 -6 -8 -8
14 14 13 12 10 9 8 7 5 3 2 1 0 1 1 2 2 2 2 2 2 2 2 2 2 1 1 1 1 1 1 1 0 0 -0 -0 -0 -0 -0 -1 -3 -5 -7 -7 -7
14 13 12 12 10 9 8 6 4 3 2 1 0 0 0 1 1 1 1 2 2 2 2 2 1 1 1 1 1 1 1 1 0 -0 -0 -1 -0 -0 -1 -4 -5 -6 -7 -7 -7
13 11 10 10 10 9 7 5 4 3 2 1 1 0 -0 0 0 0 1 1 1 1 1 1 1 1 0 0 1 1 1 1 0 -0 -0 -0 -0 -0 -2 -4 -5 -6 -6 -7 -7
11 10 8 8 9 9 7 5 4 3 2 2 1 0 -0 -0 -0 -0 0 0 0 1 1 1 0 0 0 0 0 1 1 0 -0 -0 -0 -0 -0 -0 -2 -3 -3 -3 -5 -7 -7
8 7 7 7 8 8 7 5 5 3 3 2 2 1 1 1 0 0 -0 -0 -0 -0 -0 -0 -0 0 0 -0 -0 0 0 -0 -0 -0 -0 -0 -0 0 -0 -1 -1 -1 -4 -6 -7
6 5 6 6 7 6 6 5 4 3 3 3 2 2 2 1 1 1 0 -0 -0 -0 -0 -0 -0 -0 0 0 -0 -0 -0 -0 -0 -0 -0 -0 0 1 1 -0 -0 -1 -3 -6 -7
4 4 5 6 6 5 5 5 4 3 2 3 3 3 2 2 2 1 1 0 0 0 -0 -0 -0 -0 0 0 0 -0 -0 -0 -0 -0 -0 -0 0 0 0 -1 -1 -1 -3 -6 -7
4 3 4 4 5 5 5 4 3 3 2 2 3 3 3 3 2 2 1 1 1 1 1 0 0 0 0 1 0 0 -0 -0 -0 -0 -0 -0 -0 0 -0 -1 -1 -2 -4 -5 -6
3 3 3 3 4 4 4 4 3 3 2 3 3 3 3 3 3 2 2 2 1 1 1 1 0 0 1 1 1 1 0 -0 -0 -0 -0 -0 -0 -0 -0 -1 -1 -3 -4 -5 -5
4 3 3 3 3 3 4 3 3 3 3 3 3 3 3 3 3 3 2 2 2 1 1 0 0 1 1 1 1 1 1 0 -0 -0 -0 -0 -0 0 -0 -1 -2 -3 -4 -5 -4
4 4 3 3 3 3 3 3 3 3 2 2 3 3 3 3 3 2 2 3 2 1 0 0 0 1 1 1 1 1 1 1 -0 -0 -0 -0 0 0 0 -1 -3 -4 -5 -5 -4